TimeIST,TemperatureF,Dew PointF,Humidity,Sea Level PressureIn,VisibilityMPH,Wind Direction,Wind SpeedMPH,Gust SpeedMPH,PrecipitationIn,Events,Conditions,WindDirDegrees,DateUTC
12:00 AM,68.0,55.4,64,29.92,0.7,Calm,Calm,-,N/A,,Smoke,0,2012-10-26 18:30:00
12:30 AM,66.2,53.6,64,29.92,0.7,Calm,Calm,-,N/A,,Smoke,0,2012-10-26 19:00:00
1:00 AM,66.2,53.6,64,29.92,0.7,Calm,Calm,-,N/A,,Smoke,0,2012-10-26 19:30:00
1:30 AM,66.2,53.6,64,29.92,0.7,Calm,Calm,-,N/A,,Smoke,0,2012-10-26 20:00:00
2:00 AM,64.4,53.6,68,29.92,0.7,Calm,Calm,-,N/A,,Smoke,0,2012-10-26 20:30:00
2:30 AM,64.4,53.6,68,29.92,0.7,Calm,Calm,-,N/A,,Smoke,0,2012-10-26 21:00:00
3:00 AM,64.4,55.4,73,29.92,0.7,Calm,Calm,-,N/A,,Smoke,0,2012-10-26 21:30:00
3:30 AM,64.4,55.4,73,29.92,0.6,Calm,Calm,-,N/A,,Smoke,0,2012-10-26 22:00:00
4:00 AM,62.6,55.4,77,29.92,0.6,Calm,Calm,-,N/A,,Mist,0,2012-10-26 22:30:00
4:30 AM,62.6,55.4,77,29.92,0.7,Calm,Calm,-,N/A,,Mist,0,2012-10-26 23:00:00
5:00 AM,62.6,55.4,77,29.92,0.7,Calm,Calm,-,N/A,,Mist,0,2012-10-26 23:30:00
5:30 AM,62.6,51.8,68,29.95,0.7,Calm,Calm,-,N/A,,Smoke,0,2012-10-27 00:00:00
6:00 AM,62.6,51.8,68,29.95,0.7,Calm,Calm,-,N/A,,Smoke,0,2012-10-27 00:30:00
6:30 AM,62.6,51.8,68,29.95,0.7,Calm,Calm,-,N/A,,Smoke,0,2012-10-27 01:00:00
7:00 AM,60.8,53.6,77,29.98,0.6,Calm,Calm,-,N/A,,Mist,0,2012-10-27 01:30:00
7:30 AM,59.0,53.6,82,29.98,0.6,Calm,Calm,-,N/A,Fog,Shallow Fog,0,2012-10-27 02:00:00
8:00 AM,60.8,57.2,88,29.98,0.6,Calm,Calm,-,N/A,Fog,Shallow Fog,0,2012-10-27 02:30:00
8:30 AM,64.4,57.2,77,29.98,0.7,Calm,Calm,-,N/A,,Mist,0,2012-10-27 03:00:00
9:00 AM,68.0,55.4,64,30.01,0.7,West,3.5,-,N/A,,Smoke,260,2012-10-27 03:30:00
9:30 AM,71.6,53.6,53,30.01,0.9,West,3.5,-,N/A,,Smoke,270,2012-10-27 04:00:00
10:30 AM,75.2,51.8,44,30.01,0.9,Calm,Calm,-,N/A,,Smoke,0,2012-10-27 05:00:00
11:00 AM,77.0,51.8,41,30.04,0.9,Calm,Calm,-,N/A,,Smoke,0,2012-10-27 05:30:00
11:30 AM,78.8,48.2,34,30.01,1.1,West,3.5,-,N/A,,Smoke,270,2012-10-27 06:00:00
12:00 PM,80.6,48.2,32,30.01,1.1,West,4.6,-,N/A,,Smoke,260,2012-10-27 06:30:00
12:30 PM,82.4,48.2,30,29.98,1.1,Variable,3.5,-,N/A,,Smoke,0,2012-10-27 07:00:00
1:00 PM,84.2,50.0,30,29.98,1.4,NW,5.8,-,N/A,,Smoke,320,2012-10-27 07:30:00
1:30 PM,84.2,48.2,29,29.95,1.6,NW,6.9,-,N/A,,Haze,310,2012-10-27 08:00:00
2:00 PM,84.2,48.2,29,29.95,1.6,WNW,9.2,-,N/A,,Haze,290,2012-10-27 08:30:00
2:30 PM,84.2,44.6,25,29.92,1.6,NW,8.1,-,N/A,,Haze,320,2012-10-27 09:00:00
3:00 PM,84.2,44.6,25,29.92,1.6,NW,5.8,-,N/A,,Haze,310,2012-10-27 09:30:00
3:30 PM,84.2,44.6,25,29.92,1.9,WNW,8.1,-,N/A,,Haze,300,2012-10-27 10:00:00
4:00 PM,84.2,44.6,25,29.92,1.9,WNW,6.9,-,N/A,,Haze,300,2012-10-27 10:30:00
4:30 PM,84.2,44.6,25,29.92,1.9,WNW,5.8,-,N/A,,Haze,300,2012-10-27 11:00:00
5:00 PM,82.4,44.6,26,29.92,1.9,WNW,5.8,-,N/A,,Haze,300,2012-10-27 11:30:00
5:30 PM,82.4,44.6,26,29.92,1.9,WNW,5.8,-,N/A,,Haze,300,2012-10-27 12:00:00
6:00 PM,80.6,46.4,30,29.92,1.4,NNW,5.8,-,N/A,,Haze,330,2012-10-27 12:30:00
6:30 PM,78.8,46.4,32,29.92,1.4,NNW,3.5,-,N/A,,Haze,340,2012-10-27 13:00:00
7:00 PM,75.2,50.0,41,29.95,1.1,ENE,4.6,-,N/A,,Smoke,60,2012-10-27 13:30:00
7:30 PM,75.2,50.0,41,29.95,1.0,North,3.5,-,N/A,,Smoke,10,2012-10-27 14:00:00
8:30 PM,71.6,53.6,53,29.98,0.9,Calm,Calm,-,N/A,,Smoke,0,2012-10-27 15:00:00
9:00 PM,71.6,51.8,50,29.98,0.9,ENE,3.5,-,N/A,,Smoke,70,2012-10-27 15:30:00
9:30 PM,71.6,51.8,50,29.98,0.9,ENE,3.5,-,N/A,,Smoke,60,2012-10-27 16:00:00
10:00 PM,71.6,53.6,53,29.98,0.9,ENE,3.5,-,N/A,,Smoke,70,2012-10-27 16:30:00
10:30 PM,69.8,53.6,56,29.98,0.8,Calm,Calm,-,N/A,,Smoke,0,2012-10-27 17:00:00
11:00 PM,68.0,53.6,60,29.98,0.8,Calm,Calm,-,N/A,,Smoke,0,2012-10-27 17:30:00
11:30 PM,68.0,53.6,60,29.98,0.8,Calm,Calm,-,N/A,,Smoke,0,2012-10-27 18:00:00